Location: Newark
(39.8867°N, 94.3600°W)
Time: 23:11:13
(UTC+00:00)

N. Korean satellite - Visible Passes

Search period start: 24 January 2020 00:00
Search period end: 03 February 2020 00:00
Orbit: 454 x 507 km, 97.2° (Epoch: 24 January)

Date Brightness Start Highest point End Pass type
(mag) Time Alt. Az. Time Alt. Az. Time Alt. Az.
24 Jan 6.8 12:28:50 10° N 12:32:15 45° WNW 12:35:43 10° SSW visible
25 Jan 6.6 12:03:13 10° NNE 12:06:49 79° E 12:10:26 10° S visible
26 Jan 9.7 00:12:24 10° SW 00:14:41 17° W 00:16:59 10° NW visible
26 Jan 8.3 11:37:58 10° NNE 11:41:17 34° E 11:44:38 10° SSE visible
27 Jan 9.6 11:13:16 10° NE 11:15:40 17° E 11:18:05 10° SE visible
27 Jan 7.5 12:45:58 10° NNW 12:49:03 27° WNW 12:52:10 10° SW visible
28 Jan 6.6 12:20:06 10° N 12:23:39 59° WNW 12:27:15 10° SSW visible
29 Jan 10.5 00:31:22 10° W 00:31:41 10° W 00:31:58 10° W visible
29 Jan 7.1 11:54:35 10° NNE 11:58:11 60° E 12:01:48 10° S visible
30 Jan 9.5 00:03:17 10° SSW 00:05:59 21° W 00:08:41 10° NW visible
30 Jan 8.8 11:29:28 10° NE 11:32:37 27° E 11:35:47 10° SSE visible
31 Jan 9.9 11:05:07 10° ENE 11:06:58 13° E 11:08:49 10° ESE visible
31 Jan 7.2 12:37:08 10° N 12:40:28 35° WNW 12:43:49 10° SW visible
01 Feb 6.5 12:11:23 10° N 12:15:02 79° WNW 12:18:43 10° SSW visible
02 Feb 10.0 00:21:13 10° WSW 00:22:55 13° W 00:24:38 10° WNW visible
02 Feb 7.7 11:46:00 10° NNE 11:49:32 45° E 11:53:04 10° S visible
